Regional Weather Roundup
Issued by NWS

Home | Current Version | Previous Version | Text Only | Print | Product List | Glossary On
Versions: 1 2 3 4 5 6 7 8 9 10 11 12 13 14 15 16 17 18 19 20 21 22 23 24 25 26 27 28 29 30 31 32 33 34 35 36 37 38 39 40 41 42 43 44 45 46 47 48 49 50
290
ASUS44 KJAN 201303
RWRMS

MISSISSIPPI HOURLY WEATHER ROUNDUP
NATIONAL WEATHER SERVICE JACKSON MS
800 AM CDT MON OCT 20 2014

NOTE: "FAIR: INDICATES FEW OR NO CLOUDS BELOW 12,000 FEET WITH NO
SIGNIFICANT WEATHER AND/OR OBSTRUCTIONS TO VISIBILITY.

MSZ001>002-007>008-010>013-018>021-025>028-034>036-201400-
NORTHWEST MISSISSIPPI

CITY           SKY/WX    TMP DP  RH WIND       PRES   REMARKS
CLARKSDALE     FAIR      46  46 100 CALM      30.11R
CLEVELAND      FAIR      50  49  98 CALM      30.09R
GREENWOOD      CLEAR     49  46  90 NE3       30.10R
GREENVILLE     CLEAR     48  47  96 SE3       30.09R
GRENADA          N/A    N/A N/A N/A MISG        N/A
OLIVE BRANCH   PTCLDY    45  45 100 CALM      30.09S
OXFORD         FAIR      43  41  93 CALM      30.11S
TUNICA         SUNNY     45  45 100 CALM      30.11R FOG
$$

MSZ003>006-009-014>017-022>024-029>033-037>039-201400-
NORTHEAST MISSISSIPPI

CITY           SKY/WX    TMP DP  RH WIND       PRES   REMARKS
COLUMBUS AFB   SUNNY     45  45 100 NE1       30.10S FOG
CORINTH          N/A     43  43 100 CALM        N/A
GOLDN TRIANGLE FOG       45  41  87 CALM      30.10R VSB 3/4
TUPELO         SUNNY     46  43  89 CALM      30.10R
$$

MSZ040-058-201400-
CENTRAL MISSISSIPPI

CITY           SKY/WX    TMP DP  RH WIND       PRES   REMARKS
JACKSON INTL   CLEAR     48  45  89 CALM      30.08S
JACKSON HAWKNS CLEAR     49  46  90 CALM      30.09R
MERIDIAN KEY   SUNNY     46  44  93 CALM      30.09S
MERIDIAN NAS   SUNNY     44  42  93 CALM      30.09S
RAYMOND        FAIR      43  39  87 CALM      30.09R
VICKSBURG      MOCLDY    45  43  93 CALM      30.10R
$$

MSZ059>079-201400-
SOUTH MISSISSIPPI

CITY           SKY/WX    TMP DP  RH WIND       PRES   REMARKS
BROOKHAVEN     FAIR      45  45 100 CALM      30.09S FOG
COLUMBIA         N/A    N/A N/A N/A MISG        N/A
HATTIESBURG    SUNNY     49  46  90 CALM      30.09R
MCCOMB         CLEAR     52  48  86 CALM      30.08R
NATCHEZ        CLEAR     46  45  93 CALM      30.08S
PINE BELT      SUNNY     50  45  81 CALM      30.09R
$$

MSZ080>082-201400-
COASTAL MISSISSIPPI

CITY           SKY/WX    TMP DP  RH WIND       PRES   REMARKS
BAY ST LOUIS   SUNNY     54  48  82 CALM      30.06R
BILOXI         SUNNY     55  50  83 NE6       30.06R
PASCAGOULA     SUNNY     52  49  89 N3        30.06R
GULFPORT       SUNNY     55  49  80 N5        30.06R
$$



USA.gov is the U.S. government's official web portal to all federal, state and local government web resources and services.